CW9809 Weather Reports


Display with metric or nautical units.
time (UTC)temp
F
wind
direction
speed
MPH
gust
MPH
rain 1hr
in
rain 24hr
in
rain mn
in
humidity
%
barometer
mb
20260506073014 57 173 0.0 0.0 0.00 0.00 0.00 84 1010.9
20260506071520 58 168 0.0 0.0 0.00 0.00 0.00 82 1011.0
20260506061516 60 169 0.0 0.0 0.00 0.00 0.00 79 1010.9
20260506044524 61 179 0.0 8.0 0.00 0.00 0.00 74 1011.3
20260506043024 61 161 0.0 0.0 0.00 0.00 0.00 73 1011.4
20260506041510 62 225 0.0 7.0 0.00 0.00 0.00 72 1011.3
20260506040016 62 236 0.0 1.0 0.00 0.00 0.00 71 1011.3
20260506034519 63 233 0.0 0.0 0.00 0.00 0.00 70 1011.3
20260506033024 64 219 0.0 8.0 0.00 0.00 0.00 68 1011.2
20260506031525 64 213 0.0 7.0 0.00 0.00 0.00 68 1011.2
20260506030029 63 192 0.0 0.0 0.00 0.00 0.00 70 1011.3
20260506024518 63 163 0.0 0.0 0.00 0.00 0.00 69 1011.3
20260506023022 63 173 0.0 6.0 0.00 0.00 0.00 69 1011.2
20260506021525 63 254 0.0 7.0 0.00 0.00 0.00 68 1011.1
20260506020026 63 142 0.0 0.0 0.00 0.00 0.00 68 1011.1
20260506014530 63 166 0.0 2.0 0.00 0.00 0.00 68 1011.0
20260506013018 64 168 0.0 0.0 0.00 0.00 0.00 66 1010.8
20260506011504 65 167 0.0 7.0 0.00 0.00 0.00 64 1010.6
20260506010004 65 229 0.0 8.0 0.00 0.00 0.00 64 1010.3
20260506004509 65 172 0.0 0.0 0.00 0.00 0.00 63 1010.1
20260506003013 66 188 2.0 9.0 0.00 0.00 0.00 63 1009.8
20260506001518 66 196 0.0 7.0 0.00 0.00 0.00 62 1009.7
20260506000005 67 229 0.0 0.0 0.00 0.00 0.00 61 1009.4
20260505234504 67 205 0.0 12.0 0.00 0.00 0.00 61 1009.3
20260505233015 68 217 1.0 13.0 0.00 0.00 0.00 60 1009.4
20260505231514 68 196 0.0 1.0 0.00 0.00 0.00 60 1009.2
20260505230016 69 213 1.0 10.0 0.00 0.00 0.00 60 1009.0
20260505224504 69 196 0.0 9.0 0.00 0.00 0.00 59 1008.7
20260505223009 70 239 0.0 6.0 0.00 0.00 0.00 58 1008.6
20260505221508 71 171 0.0 9.0 0.00 0.00 0.00 57 1008.8
20260505220013 72 241 0.0 11.0 0.00 0.00 0.00 57 1008.8
20260505214522 72 220 0.0 10.0 0.00 0.00 0.00 54 1008.7
20260505213005 74 150 0.0 11.0 0.00 0.00 0.00 53 1008.5
20260505211506 75 254 0.0 8.0 0.00 0.00 0.00 52 1008.4
20260505210014 74 202 4.0 9.0 0.00 0.00 0.00 52 1008.3
20260505204524 75 126 0.0 14.0 0.00 0.00 0.00 52 1008.6
20260505203024 76 220 2.0 10.0 0.00 0.00 0.00 50 1008.5
20260505201504 75 209 4.0 14.0 0.00 0.00 0.00 49 1008.5
20260505200017 77 184 4.0 14.0 0.00 0.00 0.00 48 1008.7
20260505194514 77 187 3.0 12.0 0.00 0.00 0.00 49 1008.8
20260505193018 77 224 5.0 14.0 0.00 0.00 0.00 48 1008.7
20260505191524 78 196 1.0 10.0 0.00 0.00 0.00 47 1008.9
20260505190025 79 190 4.0 13.0 0.00 0.00 0.00 46 1008.9
20260505184517 79 14 2.0 12.0 0.00 0.00 0.00 47 1009.2
20260505183037 79 215 3.0 11.0 0.00 0.00 0.00 46 1009.2
20260505181520 79 206 4.0 10.0 0.00 0.00 0.00 46 1009.3
20260505180023 78 198 2.0 10.0 0.00 0.00 0.00 48 1009.3
20260505174529 80 193 0.0 10.0 0.00 0.00 0.00 48 1009.4
20260505173020 79 237 0.0 10.0 0.00 0.00 0.00 45 1009.5
20260505171518 78 215 1.0 11.0 0.00 0.00 0.00 48 1009.6
20260505170019 78 242 0.0 8.0 0.00 0.00 0.00 47 1009.8
20260505164526 77 207 0.0 8.0 0.00 0.00 0.00 48 1010.2
20260505163027 77 187 0.0 14.0 0.00 0.00 0.00 48 1010.4
20260505161512 78 236 0.0 12.0 0.00 0.00 0.00 48 1010.4
20260505153028 74 156 0.0 6.0 0.00 0.00 0.00 51 1011.0
20260505151529 74 225 0.0 6.0 0.00 0.00 0.00 54 1011.2
20260505124530 60 229 0.0 1.0 0.00 0.00 0.00 73 1011.3
20260505123016 59 226 0.0 4.0 0.00 0.00 0.00 74 1011.5
20260505121503 57 203 0.0 0.0 0.00 0.00 0.00 81 1011.6
20260505120007 56 202 0.0 0.0 0.00 0.00 0.00 81 1011.4
20260505114510 55 211 0.0 0.0 0.00 0.00 0.00 83 1011.5
20260505113014 53 211 0.0 0.0 0.00 0.00 0.00 85 1011.4
20260505111516 53 211 0.0 0.0 0.00 0.00 0.00 86 1011.3
20260505101525 51 215 0.0 0.0 0.00 0.00 0.00 87 1010.7
20260505100022 51 219 0.0 0.0 0.00 0.00 0.00 86 1010.6
20260505094528 51 219 0.0 0.0 0.00 0.00 0.00 86 1010.4
20260505093010 51 219 0.0 0.0 0.00 0.00 0.00 85 1010.4
20260505091512 51 219 0.0 0.0 0.00 0.00 0.00 85 1010.3
20260505090021 50 219 0.0 0.0 0.00 0.00 0.00 84 1010.3
20260505084534 50 219 0.0 0.0 0.00 0.00 0.00 83 1010.4
20260505083022 51 219 0.0 0.0 0.00 0.00 0.00 82 1010.4
20260505081512 51 219 0.0 0.0 0.00 0.00 0.00 82 1010.5